Grand Rapids, MI

4:22 PM EDT on May 23, 2017 (GMT -0400)
Gerald R. Ford International

Weather History for KGRR - April, 2013

Change the Weather History Date:

Wednesday, April 3, 2013

  Actual Average Record
Temperature  
Mean Temperature 34 °F 43 °F  
Max Temperature 46 °F 53 °F 80 °F (1999)
Min Temperature 22 °F 33 °F 10 °F (1965)
Degree Days  
Heating Degree Days 31 22  
Month to date heating degree days 100 68  
Since 1 July heating degree days 5613 5755  
Cooling Degree Days 0 0  
Month to date cooling degree days 0 0  
Year to date cooling degree days 0 1  
Moisture  
Dew Point 15 °F    
Average Humidity 48    
Maximum Humidity 74    
Minimum Humidity 22    
Precipitation  
Precipitation 0.00 in 0.10 in 1.16 in (2007)
Month to date precipitation T 0.31  
Year to date precipitation 8.00 6.56  
Snow  
Snow 0.00 in 0.10 in 6.00 in (1926)
Month to date snowfall T 0.4  
Since 1 July snowfall 65.3 73.5  
Snow Depth 0.00 in    
Sea Level Pressure  
Sea Level Pressure 30.38 in    
Wind  
Wind Speed 5 mph (WNW)    
Max Wind Speed 16 mph    
Max Gust Speed 23 mph    
Visibility 10 miles    
Events      
T = Trace of Precipitation, MM = Missing Value Source: NWS Daily Summary

Daily Weather History Graph

Daily Weather History Graph

Search for Another Location

Airport or City:

Trip Planner

Search our weather history database for the weather conditions in past years. The results will help you decide how hot, cold, wet, or windy it might be!

Date:

Astronomy

Apr. 03, 2013 Rise Set
Actual Time 7:20 AM EDT 8:10 PM EDT
Civil Twilight 6:51 AM EDT 8:39 PM EDT
Nautical Twilight 6:17 AM EDT 9:13 PM EDT
Astronomical Twilight 5:42 AM EDT 9:49 PM EDT
Moon 3:09 AM EDT (4/3) 1:13 PM EDT (4/3)
Length of Visible Light 13h 48m
Length of Day
12h 50m
Last Quarter, 45% of the Moon is Illuminated
Apr 3
Last Quarter
Apr 10
New
Apr 18
First Quarter
Apr 25
Full
May 2
Last Quarter

Hourly Weather History & Observations

Time (EDT) Temp. Windchill Dew Point Humidity Pressure Visibility Wind Dir Wind Speed Gust Speed Precip Events Conditions
12:53 AM 26.1 °F 20.5 °F 15.1 °F 63% 30.28 in 10.0 mi SW 4.6 mph - N/A   Clear
1:53 AM 25.0 °F 17.1 °F 16.0 °F 69% 30.29 in 10.0 mi WSW 6.9 mph - N/A   Clear
2:53 AM 26.1 °F 17.6 °F 18.0 °F 71% 30.29 in 10.0 mi WSW 8.1 mph - N/A   Clear
3:53 AM 25.0 °F 15.5 °F 18.0 °F 75% 30.29 in 10.0 mi WSW 9.2 mph - N/A   Clear
4:53 AM 24.1 °F 18.2 °F 18.0 °F 77% 30.32 in 10.0 mi West 4.6 mph - N/A   Clear
5:53 AM 25.0 °F 17.1 °F 18.0 °F 75% 30.35 in 10.0 mi North 6.9 mph - N/A   Clear
6:53 AM 25.0 °F 20.7 °F 17.1 °F 72% 30.37 in 10.0 mi NNW 3.5 mph - N/A   Clear
7:53 AM 25.0 °F - 16.0 °F 69% 30.40 in 10.0 mi Calm Calm - N/A   Clear
8:53 AM 30.0 °F - 16.0 °F 56% 30.42 in 10.0 mi Calm Calm - N/A   Clear
9:53 AM 33.1 °F 24.9 °F 15.1 °F 48% 30.43 in 10.0 mi NNW 10.4 mph - N/A   Partly Cloudy
10:53 AM 35.1 °F 27.9 °F 14.0 °F 42% 30.46 in 10.0 mi NW 9.2 mph 23.0 mph N/A   Partly Cloudy
11:53 AM 37.0 °F 31.0 °F 12.9 °F 37% 30.47 in 10.0 mi WNW 8.1 mph 16.1 mph N/A   Partly Cloudy
12:53 PM 37.9 °F 30.5 °F 12.9 °F 36% 30.46 in 10.0 mi WNW 11.5 mph 17.3 mph N/A   Partly Cloudy
1:53 PM 39.0 °F 34.8 °F 10.9 °F 32% 30.44 in 10.0 mi North 5.8 mph 18.4 mph N/A   Partly Cloudy
2:53 PM 41.0 °F 35.2 °F 12.0 °F 31% 30.42 in 10.0 mi NNW 9.2 mph 18.4 mph N/A   Partly Cloudy
3:53 PM 42.1 °F - 10.9 °F 28% 30.41 in 10.0 mi Calm Calm - N/A   Partly Cloudy
4:53 PM 44.1 °F - 9.0 °F 24% 30.39 in 10.0 mi Calm Calm - N/A   Partly Cloudy
5:53 PM 45.0 °F - 9.0 °F 23% 30.39 in 10.0 mi Calm Calm - N/A   Partly Cloudy
6:53 PM 43.0 °F 38.8 °F 10.9 °F 27% 30.38 in 10.0 mi South 6.9 mph - N/A   Partly Cloudy
7:53 PM 39.0 °F 32.8 °F 18.0 °F 43% 30.38 in 10.0 mi West 9.2 mph - N/A   Scattered Clouds
8:53 PM 35.1 °F 31.0 °F 18.0 °F 50% 30.36 in 10.0 mi West 4.6 mph - N/A   Partly Cloudy
9:53 PM 34.0 °F 27.2 °F 18.0 °F 52% 30.38 in 10.0 mi West 8.1 mph - N/A   Partly Cloudy
10:53 PM 30.0 °F 25.2 °F 18.0 °F 61% 30.38 in 10.0 mi West 4.6 mph - N/A   Partly Cloudy
11:53 PM 28.9 °F 25.2 °F 18.0 °F 64% 30.36 in 10.0 mi WSW 3.5 mph - N/A   Partly Cloudy